Tracking 29594 objects as of 20-Sep-2024
HD Live streaming from Space Station
objects crossing your sky now

STARLINK-4760

Track STARLINK-4760 now!
10-day predictions
STARLINK-4760 is classified as:


NORAD ID: 53828
Int'l Code: 2022-114L
Perigee: 545.9 km
Apogee: 547.8 km
Inclination: 53.2 °
Period: 95.4 minutes
Semi major axis: 6917 km
RCS: Unknown
Launch date: September 19, 2022
Source: United States (US)
Launch site: AIR FORCE EASTERN TEST RANGE (AFETR)
Your satellite tracking list
Your tracking list is empty




NASA's NSSDC Master Catalog

Two Line Element Set (TLE):
1 53828U 22114L   24263.81364466  .00010045  00000-0  64819-3 0  9992
2 53828  53.2150 189.6641 0001361  91.2029 268.9119 15.08847017111935
Source of the keplerian elements: AFSPC